GFSNW_sfc_30mbdewp_246.txt.gz
Dewpoint
39 38 38 40 39 39 36 33 24 29 32 21 26 22 23 23 22 22 23 24 18 19 18 18 21 18 21 29 30 27 28 25 21 17 29 33 36 34 34 29 27 31 29 28
40 39 38 39 39 38 35 29 28 30 30 19 22 26 24 22 21 19 16 15 16 16 16 17 26 23 23 26 29 28 28 22 16 12 25 27 27 29 30 30 31 31 28 27
40 39 38 38 38 38 35 30 22 23 28 27 24 21 20 22 22 19 16 17 17 17 19 23 21 23 23 25 28 30 31 25 21 14 19 25 23 26 28 28 27 28 30 30
39 40 38 38 38 39 34 29 24 25 20 19 23 23 21 19 19 18 18 16 15 18 15 16 21 22 23 23 31 31 29 22 24 24 26 27 25 26 26 26 27 25 27 30
40 39 38 39 38 39 34 24 25 26 25 24 21 22 21 19 19 19 18 16 16 16 16 16 15 17 21 21 26 25 30 24 25 21 24 24 25 26 26 25 28 28 28 27
39 39 39 40 38 39 34 31 32 28 23 25 24 20 19 20 20 19 19 19 18 17 16 17 20 21 21 21 20 21 25 24 22 16 22 20 14 20 22 22 25 25 25 26
38 37 39 40 39 39 37 34 34 28 20 22 20 20 20 21 20 20 20 21 20 19 24 24 21 19 17 20 21 22 22 21 21 19 19 6 10 18 17 19 23 22 25 31
39 38 39 40 39 39 37 35 34 30 22 24 23 22 21 22 22 20 19 20 23 26 23 19 16 11 12 13 19 19 21 21 18 18 16 14 14 13 11 15 15 22 22 26
38 38 38 38 39 38 37 36 37 33 26 20 24 25 24 21 19 21 22 26 26 26 20 16 14 10 9 7 12 24 23 21 19 19 16 11 13 18 17 17 10 21 20 20
38 37 38 39 38 38 37 34 35 33 26 26 25 23 23 26 24 22 20 22 23 25 18 17 12 12 15 13 11 8 12 24 19 19 18 18 19 18 21 11 12 20 20 19
37 38 37 38 37 37 37 33 35 33 27 25 25 24 23 23 23 20 20 22 21 22 20 17 17 17 21 19 18 16 14 12 18 20 18 14 23 25 21 22 22 21 20 21
37 36 37 39 37 37 37 32 34 35 31 27 29 28 28 27 28 28 29 24 25 23 18 18 20 17 18 19 15 22 19 24 23 20 19 29 32 31 31 31 26 23 22 22
36 36 37 35 36 38 36 33 32 31 27 25 25 24 25 27 28 27 22 23 26 26 27 26 23 19 22 19 19 20 22 28 26 26 26 28 27 30 33 31 29 27 27 25
35 34 36 35 36 37 35 32 32 32 30 23 20 25 25 28 28 28 28 26 26 27 29 26 24 23 27 23 23 22 22 20 19 21 22 25 27 30 30 31 30 27 27 26
33 35 35 35 36 37 35 34 32 33 27 20 22 23 21 21 22 23 28 29 28 28 27 26 24 26 25 24 24 22 23 21 21 20 22 24 24 26 30 27 25 25 25 24
34 34 36 37 35 35 30 25 35 34 32 25 19 24 24 24 25 24 24 25 29 31 30 28 31 31 28 24 21 19 19 21 24 25 25 26 28 28 27 27 27 28 26 26
34 35 36 35 34 34 28 22 32 37 33 27 22 18 23 32 31 31 32 33 32 31 31 29 28 27 29 25 20 20 20 21 21 22 27 25 26 25 28 28 27 27 27 27
33 34 35 36 36 34 33 33 33 35 32 29 21 19 21 30 28 27 31 30 31 31 29 29 27 26 26 22 22 24 26 31 29 28 28 27 28 28 28 29 29 28 28 27
33 34 35 35 33 27 27 31 33 35 27 23 22 18 11 30 29 29 31 31 26 29 26 26 26 23 23 24 28 30 33 32 30 28 29 28 28 28 28 28 27 27 27 27
34 33 31 27 32 34 35 35 32 30 31 29 22 23 19 27 26 23 24 29 24 23 24 27 25 23 27 32 32 31 29 28 28 27 26 27 27 26 27 27 27 28 27 26
32 30 29 31 33 32 29 25 25 25 23 27 24 22 19 22 18 17 21 19 25 21 21 23 23 24 28 31 31 31 31 28 27 27 27 26 26 25 26 26 27 27 27 27
34 33 34 32 26 23 21 20 22 24 20 24 23 24 24 23 27 22 23 21 25 19 25 24 20 25 27 26 26 27 27 27 27 26 26 28 27 27 27 27 27 27 27 27
32 29 26 25 21 17 17 13 18 18 20 25 29 27 31 32 33 29 27 23 21 24 19 18 23 26 26 26 26 26 26 27 27 26 27 28 29 29 28 28 28 28 27 27
27 25 19 19 16 18 16 18 17 18 25 26 29 27 29 30 28 27 22 22 22 17 15 18 24 26 25 25 27 26 26 27 27 27 27 28 29 27 27 28 28 29 29 28
24 24 17 18 20 20 22 21 22 24 28 26 25 26 26 23 21 23 21 18 16 17 16 22 26 25 26 27 27 28 27 27 28 28 28 28 28 28 27 28 28 28 27 27
25 24 21 20 18 16 18 23 20 23 26 27 25 22 21 20 20 19 18 16 12 18 24 25 25 24 28 27 25 26 26 27 28 27 28 28 28 27 27 26 26 27 28 28
22 20 23 20 19 18 18 18 18 25 25 21 23 21 17 20 18 17 21 18 22 24 25 25 24 26 29 26 24 24 24 26 25 26 28 29 27 27 25 25 26 27 27 27

GFSNW_sfc_30mbdewp_252.txt.gz
Dewpoint
41 41 40 39 40 40 34 29 13 28 32 23 21 20 22 26 22 20 20 22 20 15 15 15 14 14 22 25 20 17 27 27 19 19 25 30 29 26 26 19 16 21 26 20
41 40 41 40 39 39 33 26 26 30 28 20 18 22 25 25 20 21 17 15 16 17 15 14 17 16 20 22 17 17 29 23 16 14 23 29 24 25 26 26 26 20 18 27
40 41 41 40 39 40 32 25 14 19 25 23 21 22 20 21 21 20 20 19 18 17 17 17 17 16 17 18 18 19 26 21 19 14 17 20 21 22 24 25 20 19 19 24
40 40 39 40 40 41 31 26 18 23 15 20 24 23 22 19 17 21 20 19 18 19 19 18 15 16 16 17 18 21 21 14 14 19 17 18 20 23 24 22 21 20 19 23
40 40 40 40 40 40 31 23 22 26 24 25 23 20 19 20 20 20 19 17 18 20 19 19 18 18 18 17 18 18 19 13 15 13 17 18 14 12 12 20 19 25 28 27
40 40 40 40 40 37 31 32 30 27 22 21 21 20 20 20 21 21 21 20 19 20 20 20 19 20 21 21 20 19 17 14 16 9 14 14 7 14 13 16 26 25 21 21
41 41 41 41 40 39 33 31 32 27 19 22 21 21 21 20 20 20 21 23 22 22 20 23 22 24 23 21 21 20 18 15 16 11 14 7 7 13 16 17 23 28 28 28
41 40 40 39 39 40 37 36 33 29 21 21 22 21 21 23 22 22 23 23 22 23 21 18 16 9 9 9 13 16 20 17 12 10 10 11 14 18 22 20 22 30 30 29
41 39 40 39 39 39 39 37 37 32 23 20 21 20 23 22 21 20 19 23 23 21 20 17 11 8 10 12 13 26 19 17 14 15 12 8 9 25 28 29 21 31 31 30
40 39 39 39 39 39 39 37 38 34 26 25 23 21 19 21 22 21 20 19 21 23 17 14 12 12 15 15 15 13 18 21 15 15 15 15 20 27 26 19 23 32 33 32
39 39 38 38 38 39 38 36 38 34 29 26 25 25 24 26 25 19 19 17 19 19 17 15 15 17 18 13 14 15 17 17 16 18 15 10 28 20 22 26 32 33 34 32
37 37 38 38 37 37 37 35 36 38 32 28 29 30 28 26 25 23 25 17 23 23 20 17 18 14 14 14 12 18 18 22 21 23 18 19 21 24 26 31 31 33 32 31
35 35 35 36 37 37 38 36 34 34 30 27 24 24 25 29 29 28 23 24 23 23 24 22 20 18 19 15 17 18 19 26 24 22 21 22 21 22 27 29 30 31 32 27
34 36 36 35 34 34 35 34 34 34 29 22 20 23 23 25 26 28 27 25 24 24 22 19 19 19 21 18 17 19 20 20 18 19 19 20 24 27 24 25 29 28 28 28
32 31 30 30 34 35 35 37 35 36 30 21 20 25 23 23 25 25 27 26 25 23 22 22 20 21 19 21 22 20 21 20 19 16 18 20 22 24 28 28 28 29 28 27
32 32 31 33 35 36 33 25 28 36 34 27 17 19 21 24 23 22 22 25 26 27 24 23 24 25 24 22 21 20 21 22 23 21 23 24 25 25 29 28 28 28 28 28
35 33 33 34 36 33 26 21 25 37 35 25 18 18 21 23 28 25 24 27 26 26 25 24 24 27 29 25 19 19 21 22 22 26 29 24 27 28 29 28 28 28 28 28
36 36 33 35 36 37 34 34 37 35 31 28 18 17 18 24 26 28 29 24 25 27 25 27 26 26 26 22 22 22 24 32 31 31 31 29 30 29 27 27 27 27 27 27
33 36 34 34 33 31 30 34 37 35 27 19 21 17 9 22 28 29 30 30 23 29 24 25 26 24 21 22 22 27 31 31 30 28 29 32 29 27 26 26 26 26 26 26
31 35 30 26 29 33 36 34 29 29 29 27 19 21 15 20 17 14 23 26 23 21 22 26 23 21 22 24 29 31 31 31 31 26 25 25 25 25 25 25 25 25 27 26
33 29 27 30 35 34 31 26 24 23 21 22 20 20 16 21 16 18 24 16 21 18 20 21 20 20 24 30 32 32 31 30 27 27 26 26 27 27 27 27 27 27 26 26
33 33 34 34 30 28 23 20 22 22 17 22 23 23 20 23 25 23 24 19 22 17 24 22 19 22 29 29 29 29 27 27 26 25 25 25 26 26 27 27 26 26 27 27
31 30 27 25 24 18 16 12 17 20 23 24 24 26 27 27 28 25 23 19 18 25 22 18 19 24 28 27 26 26 27 25 24 25 25 25 25 26 27 27 27 28 26 27
25 23 17 18 16 18 16 15 16 20 27 28 30 27 26 28 25 24 23 24 24 19 17 16 18 25 26 26 26 26 26 25 25 24 24 24 24 24 26 27 27 27 25 25
23 23 15 17 19 20 21 22 21 20 25 26 25 26 26 24 23 25 22 20 17 18 13 16 23 26 25 26 26 26 25 24 24 25 25 24 24 24 24 25 26 25 25 25
26 23 20 20 21 20 21 21 21 23 23 25 25 21 21 20 20 18 17 17 13 13 22 24 25 25 26 27 26 26 26 24 24 24 24 23 23 25 28 28 26 25 25 25
21 20 22 20 20 20 18 22 21 23 23 18 21 18 16 19 18 16 19 17 15 21 24 25 25 25 27 27 26 24 22 23 24 25 27 27 26 28 28 23 24 27 27 26

GFSNW_sfc_30mbdewp_255.txt.gz
Dewpoint
40 40 41 40 40 39 32 27 15 28 33 24 22 18 22 25 24 21 20 22 21 16 16 13 11 10 17 16 19 14 21 22 17 14 23 31 29 25 26 19 16 18 19 16
39 40 40 41 40 37 31 25 24 29 30 21 18 22 23 26 21 21 19 16 15 18 15 13 15 13 17 17 16 13 19 19 12 7 16 21 18 22 25 26 25 16 15 13
40 40 39 42 39 39 31 24 14 20 26 23 20 22 20 20 21 19 20 19 19 18 18 16 15 15 16 18 16 19 19 19 17 11 12 14 18 16 19 22 18 18 17 17
40 39 40 41 40 39 29 24 19 23 15 21 24 23 22 19 16 21 21 18 18 17 15 16 14 13 15 16 16 18 20 16 14 14 16 12 12 17 18 15 15 16 15 17
39 40 40 40 40 38 30 24 22 25 24 25 23 21 18 18 17 20 18 19 19 19 20 19 17 18 16 15 15 16 20 14 14 13 10 11 11 11 10 13 19 20 20 21
40 40 40 40 41 36 30 30 30 26 21 21 20 18 18 20 21 20 21 21 21 20 19 21 21 20 19 17 16 18 17 17 14 9 7 10 8 11 10 14 22 26 24 30
40 41 40 39 40 38 33 31 31 26 19 21 21 21 21 19 19 19 20 22 21 20 23 23 22 19 18 19 21 22 19 18 18 10 9 6 5 11 16 19 22 31 31 32
40 40 40 40 40 40 37 35 33 29 21 21 21 20 20 21 22 21 20 21 23 24 22 17 15 11 7 9 14 19 23 21 15 8 11 6 8 24 24 21 22 28 29 31
38 40 40 40 39 39 39 38 38 32 24 21 22 20 20 19 20 20 20 22 24 22 19 17 12 7 8 12 15 25 21 18 14 14 9 7 9 22 20 24 20 26 31 31
36 38 40 39 39 39 39 38 39 33 27 26 23 21 20 21 22 20 22 20 20 23 18 15 12 11 14 14 13 12 17 18 14 12 9 13 17 22 16 16 21 28 31 34
38 38 39 39 38 38 38 37 39 35 30 28 26 25 23 24 25 20 20 19 19 19 16 15 15 16 17 11 9 10 13 16 16 16 14 11 23 18 15 20 27 29 33 36
37 37 37 37 38 38 38 35 37 38 32 29 29 28 28 27 25 24 26 19 20 23 20 18 18 16 15 13 11 15 16 19 17 22 19 22 25 24 22 26 26 25 31 35
35 35 34 35 37 36 36 36 36 35 30 28 28 27 29 32 31 28 24 25 23 22 25 21 21 17 19 13 14 15 15 19 19 21 22 19 21 21 24 25 24 29 33 34
34 33 35 36 36 34 36 36 36 35 30 23 21 24 23 24 29 30 28 25 26 25 25 22 20 16 19 15 15 15 15 16 17 18 19 20 22 23 22 24 29 29 28 26
32 32 31 31 31 32 35 36 36 35 29 23 23 24 25 25 25 26 29 28 25 24 23 22 19 20 17 17 17 16 17 18 18 16 18 20 21 22 24 25 26 28 27 26
34 32 31 31 33 35 35 29 29 37 36 27 19 21 21 23 24 25 27 27 26 24 23 21 21 20 22 19 16 17 20 22 22 20 22 24 27 27 29 28 28 27 27 27
36 35 33 32 33 34 29 24 24 36 36 26 19 17 21 23 27 25 25 26 26 25 24 23 21 24 27 23 17 16 20 20 20 24 30 28 29 28 29 28 27 27 27 28
33 35 36 34 35 36 33 35 36 36 31 28 19 17 19 24 27 26 26 24 26 26 24 25 24 24 24 19 17 18 21 24 29 32 31 31 33 32 29 29 26 26 26 27
31 35 36 34 34 31 31 37 37 35 29 20 20 16 8 21 27 29 29 26 19 24 22 24 25 22 20 19 20 22 25 30 31 30 31 30 26 26 26 26 25 25 25 27
30 34 30 26 29 35 36 34 30 28 29 26 20 20 16 20 19 17 24 25 23 19 22 25 24 19 20 21 24 25 30 30 30 27 25 25 25 26 26 25 25 26 25 25
31 28 27 30 35 33 28 24 24 25 21 23 22 19 16 20 15 15 23 19 21 17 19 22 20 19 21 26 27 31 32 30 27 27 26 25 26 26 26 26 26 26 26 25
32 32 34 33 30 27 23 21 23 20 16 22 21 21 20 21 25 22 24 20 21 15 24 21 18 22 29 30 30 30 29 27 25 25 25 25 25 26 26 27 26 27 27 27
31 29 27 25 23 18 17 13 17 19 22 24 25 23 24 26 27 23 23 19 17 24 21 18 19 23 28 29 28 27 27 26 24 24 24 24 25 25 25 25 27 28 27 27
25 21 17 18 15 17 17 15 15 21 27 26 27 27 26 27 23 23 21 21 25 19 17 16 20 23 28 27 27 26 26 25 25 23 23 24 24 23 24 24 25 25 25 25
23 23 15 17 18 19 21 22 21 21 25 26 26 26 26 25 23 24 23 20 17 19 15 18 23 26 27 26 27 26 25 24 24 24 24 23 23 23 24 26 28 26 26 25
24 23 19 20 21 20 22 22 22 24 25 27 27 23 21 21 21 19 18 16 14 14 20 24 25 26 26 26 27 27 27 26 25 25 25 26 26 25 24 28 27 24 25 27
22 20 23 18 19 19 20 23 23 28 25 21 23 19 17 19 17 15 18 16 16 19 24 25 26 25 26 28 27 25 24 23 23 23 24 25 27 28 27 26 25 24 26 28

GFSNW_sfc_30mbdewp_261.txt.gz
Dewpoint
40 40 42 41 39 38 34 26 31 35 37 31 32 27 17 18 16 17 14 17 15 13 11 8 8 8 8 16 11 10 15 16 10 8 7 6 9 25 19 14 12 13 12 10
39 40 40 41 39 37 28 27 26 32 35 28 27 19 18 19 16 13 16 14 13 12 12 10 10 10 11 12 12 13 16 12 12 4 4 25 22 22 20 18 16 14 12 11
39 39 41 42 40 37 33 28 29 31 31 24 23 19 18 18 19 17 15 13 14 13 12 13 13 11 10 12 14 12 14 13 14 9 9 18 11 14 15 15 12 11 11 11
40 38 40 42 41 38 33 33 29 29 27 29 24 20 17 15 15 16 15 15 14 12 12 14 12 10 11 11 10 11 11 16 14 15 12 5 3 6 4 7 10 12 10 9
39 40 40 42 42 38 32 29 31 25 23 22 21 21 18 15 12 13 13 14 13 14 13 13 14 14 13 12 11 10 12 13 12 12 9 8 8 8 5 2 1 4 5 7
39 40 40 42 42 39 32 28 28 27 25 21 21 22 18 15 15 16 16 15 15 14 14 16 17 17 15 14 13 12 12 15 15 13 10 10 9 4 4 2 2 6 16 24
40 40 40 42 43 39 34 29 28 29 25 21 20 17 15 15 15 16 16 16 15 16 18 18 16 15 14 14 14 14 15 15 18 16 14 8 4 5 9 17 22 31 25 22
40 40 41 43 43 41 35 32 31 31 25 22 19 18 17 18 17 18 17 18 18 20 17 16 16 17 18 15 11 11 14 16 20 14 6 3 0 13 24 18 20 26 25 22
40 40 40 42 42 41 35 35 35 34 28 24 20 18 18 18 20 20 19 19 21 20 20 17 13 9 12 12 13 11 15 19 16 14 10 6 23 21 16 15 11 22 24 22
39 38 39 40 42 41 37 37 37 33 29 25 23 21 21 21 20 21 21 20 20 20 21 17 13 11 8 8 12 11 9 18 16 14 13 7 11 13 15 14 21 20 23 25
36 35 34 40 41 42 40 37 39 34 31 27 26 25 22 21 21 22 25 21 24 22 18 16 15 13 12 12 9 7 7 8 15 17 14 8 18 15 15 17 19 21 21 22
36 36 38 37 39 40 41 38 38 38 35 32 33 32 30 27 24 25 27 21 19 22 21 21 19 17 16 12 10 10 10 13 16 15 12 15 16 16 17 17 20 22 21 20
36 37 39 39 38 40 39 37 38 37 32 30 32 29 29 29 28 28 28 26 24 21 20 21 21 18 14 12 10 9 10 11 13 17 15 13 13 15 17 21 20 24 25 21
35 35 36 36 36 37 37 35 37 35 32 26 23 25 25 28 27 28 28 26 24 23 22 27 21 18 16 13 13 12 11 12 11 12 12 14 18 19 19 21 23 26 26 26
34 34 34 35 36 36 35 36 37 36 29 27 26 25 22 24 24 25 27 28 27 28 25 24 20 17 15 16 15 14 14 13 13 12 13 23 15 19 22 24 25 27 27 28
33 33 33 34 36 36 33 31 31 35 35 30 19 23 23 23 24 25 24 25 29 32 25 22 22 19 21 19 13 13 14 15 16 16 16 18 19 20 25 29 28 28 28 28
36 36 34 33 33 32 32 27 32 35 38 29 21 19 22 23 24 25 26 27 32 27 26 22 19 18 23 20 17 15 14 14 15 16 18 18 19 25 31 30 30 29 27 26
33 33 35 35 34 34 34 34 35 36 32 29 21 17 19 24 28 26 27 26 28 27 23 20 17 17 19 20 15 15 14 14 15 16 18 21 32 30 30 28 26 24 23 24
32 32 35 34 32 33 30 35 37 34 32 27 21 16 16 22 22 29 27 27 23 23 23 20 21 20 20 17 15 15 14 13 15 17 22 25 30 29 26 24 24 25 25 25
31 30 29 29 31 37 36 35 31 30 31 30 21 17 15 19 19 25 24 27 21 21 20 20 23 19 18 17 17 17 17 17 17 19 23 26 28 25 25 24 24 25 25 26
28 26 23 31 35 31 27 26 25 23 23 22 18 18 15 15 15 20 26 21 18 16 14 20 18 14 17 21 26 27 26 23 19 26 27 26 26 26 25 25 25 25 25 25
29 29 31 31 29 28 22 18 15 12 13 15 17 19 18 17 19 16 19 16 15 13 21 21 13 13 16 24 29 29 28 27 27 27 26 26 25 25 25 25 25 24 25 26
27 25 23 22 19 16 15 12 10 15 14 18 21 23 23 24 22 21 20 21 17 17 21 15 11 12 21 26 29 29 28 28 27 26 24 23 24 24 25 25 25 25 24 24
24 18 14 13 17 12 6 5 9 15 20 22 22 23 24 23 23 21 21 19 18 16 11 9 13 19 24 28 29 27 27 27 27 26 24 24 25 26 26 27 27 27 28 31
22 19 11 10 8 12 18 20 19 20 22 22 23 28 29 25 23 22 17 15 15 12 9 22 29 28 29 29 29 30 32 30 29 29 30 27 28 28 29 31 32 31 31 31
20 18 14 11 12 15 16 17 18 21 29 29 23 20 18 18 20 20 21 15 7 8 19 24 24 23 25 28 30 30 31 30 31 29 30 30 29 29 29 29 28 28 31 29
19 14 13 14 14 15 16 21 22 24 21 17 19 20 14 20 10 8 13 15 22 28 27 25 26 24 26 28 28 30 30 30 31 30 30 29 29 29 28 26 27 27 27 27